Regional Weather Roundup
Issued by NWS Albany, NY

Home | Current Version | Previous Version | Text Only | Print | Product List | Glossary On
Versions: 1 2 3 4 5 6 7 8 9 10 11 12 13 14 15 16 17 18 19 20 21 22 23 24 25 26 27 28
000
ASUS41 KALY 172210
RWRALY

NEW YORK STATE HOURLY WEATHER ROUNDUP
NATIONAL WEATHER SERVICE ALBANY NY
500 PM EST SUN DEC 17 2017

NOTE: "FAIR" INDICATES FEW OR NO CLOUDS BELOW 12,000 FEET WITH NO
SIGNIFICANT WEATHER AND/OR NO OBSTRUCTIONS TO VISIBILITY.

NYZ032-033-038>043-046>054-057>066-NYZ062>081-082-084-172300-
EAST


CITY           SKY/WX    TMP DP  RH WIND       PRES   REMARKS
ALBANY         CLOUDY    24  10  55 N7        30.25F WCI  16
GLENS FALLS    PTCLDY    13   8  81 CALM      30.26F
POUGHKEEPSIE   CLOUDY    29  17  61 NE3       30.25R
NEWBURGH       MOCLDY    28  21  74 CALM      30.23S
MONTGOMERY     PTCLDY    28  19  69 NE5       30.22R WCI  23
WHITE PLAINS   CLOUDY    30  20  66 CALM      30.22S
ISLIP          CLOUDY    32  23  69 N3        30.25S
NEW YORK CITY  CLOUDY    36  25  64 NE7       30.24S WCI  30
CENTRAL PARK   PTCLDY    35  26  69 NE3       30.26S
$$

NYZ005>009-017-018-044>046-055-056-172300-
CENTRAL


CITY           SKY/WX    TMP DP  RH WIND       PRES   REMARKS
FULTON         CLOUDY    20  12  71 NE3       30.24R
SYRACUSE       CLOUDY    20  16  84 E5        30.24R WCI  13
ROME           CLOUDY    18  12  77 CALM      30.25F
ELMIRA         CLOUDY    28  20  71 E3        30.18S
BINGHAMTON     CLOUDY    23  15  71 CALM      30.14S
MONTICELLO     CLOUDY    25  19  78 CALM      30.18R
$$

NYZ026>034-041>043-087-172300-
NORTH


CITY           SKY/WX    TMP DP  RH WIND       PRES   REMARKS
WATERTOWN      CLOUDY    10   2  69 NE6       30.28S WCI   0
FORT DRUM      NOT AVBL
OGDENSBURG     FAIR       3  -1  81 NE3       30.29F
MASSENA        PTCLDY     6   2  83 NW3       30.33S
SARANAC LAKE   CLOUDY     4   0  83 CALM      30.14S
PLATTSBURGH    CLOUDY     8   1  73 N8        30.31F WCI  -4
$$

NYZ001>004-010>016-019>021-085-172300-
WEST


CITY           SKY/WX    TMP DP  RH WIND       PRES   REMARKS
NIAGARA FALLS  CLOUDY    25  14  63 E8        30.17F WCI  16
BUFFALO        CLOUDY    24  16  71 NE9       30.16F WCI  14
DUNKIRK        CLOUDY    26  20  77 NE7       30.14F WCI  18
JAMESTOWN      CLOUDY    29  28  96 S6        30.09S FOG     WCI  23
WELLSVILLE     CLOUDY    32  26  78 CALM      30.10R
ROCHESTER      CLOUDY    24  18  77 E7        30.21F WCI  16
PENN YAN       CLOUDY    23  15  71 E3        30.19S
$$

             KEY
       WCI = WIND CHILL INDEX
       VSB = VISIBILITY
       HX  = HEAT INDEX
$$




USA.gov is the U.S. government's official web portal to all federal, state and local government web resources and services.